Regional Weather Roundup
Issued by NWS

Home | Current Version | Previous Version | Graphics & Text | Print | Product List | Glossary On
Versions: 1 2 3 4 5 6 7 8 9 10 11 12 13 14 15 16 17 18 19 20 21 22 23 24 25 26 27 28 29 30 31 32 33 34 35 36 37 38 39 40 41 42 43 44 45 46 47 48 49 50
000
ASUS43 KTOP 310208
RWRKS

WEATHER ROUNDUP FOR KANSAS
NATIONAL WEATHER SERVICE GOODLAND KS
900 PM CDT THU OCT 30 2014

NOTE:  "FAIR" INDICATES FEW OR NO CLOUDS BELOW 12,000 FEET WITH NO
SIGNIFICANT WEATHER AND/OR OBSTRUCTIONS TO VISIBILITY.

KSZ001>006-013>018-027>032-041>047-310300-
NORTHWEST KANSAS

CITY           SKY/WX    TMP DP  RH WIND       PRES   REMARKS
GOODLAND       CLEAR     42  26  53 N7        30.37R HAZE
HAYS           CLEAR     52  30  43 N12       30.30R
HILL CITY      CLEAR     51  32  48 N12       30.33R
RUSSELL        CLEAR     53  33  46 N13       30.28R
$$

KSZ061>065-074>080-084>089-310300-
SOUTHWEST KANSAS

CITY           SKY/WX    TMP DP  RH WIND       PRES   REMARKS
DODGE CITY     CLEAR     47  30  51 NW8       30.30R
ELKHART          N/A     53  26  35 NE5         N/A
GARDEN CITY    CLEAR     46  29  51 N10       30.31R
GREAT BEND     CLEAR     50  32  50 N10       30.28R
LIBERAL        CLEAR     48  27  43 N7        30.32R
PRATT          CLEAR     48  32  53 N8        30.27R
$$

KSZ066>073-081>083-090>101-310300-
SOUTHEAST KANSAS

CITY           SKY/WX    TMP DP  RH WIND       PRES   REMARKS
CHANUTE        CLEAR     56  40  55 N8        30.14R
COFFEYVILLE    CLEAR     57  38  48 NW7       30.13R
HUTCHINSON     PTCLDY    58  33  39 N13       30.23R
MEDICINE LODGE   N/A     53  34  48 N9        30.24R
NEWTON         CLEAR     55  32  41 N12       30.23R
PARSONS        CLEAR     53  39  59 N6        30.14R
WICHITA INTL   CLEAR     60  34  37 NW13      30.20R
WICHITA JABRA  CLEAR     58  34  40 N13       30.20R
WICHITA MCCONL CLEAR     60  33  36 N13       30.20R
WINFIELD       CLEAR     56  37  49 NW9       30.19R
$$

KSZ007>012-019>026-033>040-048>060-102>105-310300-
NORTHEAST KANSAS

CITY           SKY/WX    TMP DP  RH WIND       PRES   REMARKS
CONCORDIA      CLEAR     53  38  56 N18G26    30.28R
EMPORIA        CLEAR     55  38  52 N10       30.17R
LAWRENCE       CLEAR     56  40  55 N21       30.15R
MANHATTAN      CLEAR     57  39  51 N8G17     30.22R
MARYSVILLE     CLEAR     52  37  58 N17G23    30.24R
OLATHE IND     CLEAR     54  41  61 NW13      30.14R
OLATHE EXE     CLEAR     57  41  55 N12       30.12R
SALINA         CLEAR     55  36  48 N14       30.25R
TOPEKA BILLARD CLEAR     56  41  57 N14       30.18R
TOPEKA FORBES  CLEAR     56  40  55 N13       30.17R
$$



USA.gov is the U.S. government's official web portal to all federal, state and local government web resources and services.